User: anonymous   Login
Location: Gipe Farm
(40.9466°N, 95.5370°W)
Time: 15:37:33
(UTC-05:00)
Language:

Cosmos 2082 Rocket - Orbit

View from above orbital plane
View from above orbital plane
View from above satellite
View from above satellite

Ground track
Ground track

The orbit data is extracted from the following two-line orbital elements,

1 20625U 90046B   18144.95553337 -.00000204 +00000-0 -81268-4 0  9999
2 20625 070.9976 151.8285 0016443 303.0855 056.8689 14.14633335445915
Epoch (UTC): 24 May 2018 22:55:58
Eccentricity: 0.0016443
inclination: 70.9976°
perigee height: 831 km
apogee height: 855 km
right ascension of ascending node: 151.8285°
argument of perigee: 303.0855°
revolutions per day: 14.14633335
mean anomaly at epoch: 56.8689°
orbit number at epoch: 44591

The dashed part of the orbit path shows where the satellite is in the earth's shadow,  

DLR